11/07/2024 08:00:00,0.191
11/07/2024 08:15:00,0.191
11/07/2024 08:30:00,0.19
11/07/2024 08:45:00,0.19
11/07/2024 09:00:00,0.19
11/07/2024 09:15:00,0.189
11/07/2024 09:30:00,0.189
11/07/2024 09:45:00,0.188
11/07/2024 10:00:00,0.188
11/07/2024 10:15:00,0.188
11/07/2024 10:30:00,0.188
11/07/2024 10:45:00,0.187
11/07/2024 11:00:00,0.187
11/07/2024 11:15:00,0.187
11/07/2024 11:30:00,0.187
11/07/2024 11:45:00,0.187
11/07/2024 12:00:00,0.185
11/07/2024 12:15:00,0.185
11/07/2024 12:30:00,0.185
11/07/2024 12:45:00,0.185
11/07/2024 13:00:00,0.184
11/07/2024 13:15:00,0.184
11/07/2024 13:30:00,0.184
11/07/2024 13:45:00,0.183
11/07/2024 14:00:00,0.183
11/07/2024 14:15:00,0.183
11/07/2024 14:30:00,0.183
11/07/2024 14:45:00,0.182
11/07/2024 15:00:00,0.182
11/07/2024 15:15:00,0.181
11/07/2024 15:30:00,0.18
11/07/2024 15:45:00,0.179
11/07/2024 16:00:00,0.179
11/07/2024 16:15:00,0.179
11/07/2024 16:30:00,0.178
11/07/2024 16:45:00,0.178
11/07/2024 17:00:00,0.177
11/07/2024 17:15:00,0.177
11/07/2024 17:30:00,0.176
11/07/2024 17:45:00,0.175
11/07/2024 18:00:00,0.175
11/07/2024 18:15:00,0.175
11/07/2024 18:30:00,0.174
11/07/2024 18:45:00,0.174
11/07/2024 19:00:00,0.174
11/07/2024 19:15:00,0.174
11/07/2024 19:30:00,0.174
11/07/2024 19:45:00,0.173
11/07/2024 20:00:00,0.173
11/07/2024 20:15:00,0.173
11/07/2024 20:30:00,0.172
11/07/2024 20:45:00,0.172
11/07/2024 21:00:00,0.171
11/07/2024 21:15:00,0.171
11/07/2024 21:30:00,0.171
11/07/2024 21:45:00,0.171
11/07/2024 22:00:00,0.171
11/07/2024 22:15:00,0.17
11/07/2024 22:30:00,0.17
11/07/2024 22:45:00,0.17
11/07/2024 23:00:00,0.17
11/07/2024 23:15:00,0.17
11/07/2024 23:30:00,0.17
11/07/2024 23:45:00,0.17
12/07/2024 00:00:00,0.17
12/07/2024 00:15:00,0.17
12/07/2024 00:30:00,0.17
12/07/2024 00:45:00,0.17
12/07/2024 01:00:00,0.169
12/07/2024 01:15:00,0.169
12/07/2024 01:30:00,0.169
12/07/2024 01:45:00,0.169
12/07/2024 02:00:00,0.169
12/07/2024 02:15:00,0.169
12/07/2024 02:30:00,0.169
12/07/2024 02:45:00,0.169
12/07/2024 03:00:00,0.169
12/07/2024 03:15:00,0.169
12/07/2024 03:30:00,0.169
12/07/2024 03:45:00,0.169
12/07/2024 04:00:00,0.169
12/07/2024 04:15:00,0.169
12/07/2024 04:30:00,0.169
12/07/2024 04:45:00,0.169
12/07/2024 05:00:00,0.169
12/07/2024 05:15:00,0.169
12/07/2024 05:30:00,0.169
12/07/2024 05:45:00,0.168
12/07/2024 06:00:00,0.168
12/07/2024 06:15:00,0.168
12/07/2024 06:30:00,0.168
12/07/2024 06:45:00,0.168
12/07/2024 07:00:00,0.168
12/07/2024 07:15:00,0.168
12/07/2024 07:30:00,0.168
12/07/2024 07:45:00,0.168
12/07/2024 08:00:00,0.168
12/07/2024 08:15:00,0.168
12/07/2024 08:30:00,0.168
12/07/2024 08:45:00,0.168
12/07/2024 09:00:00,0.168
12/07/2024 09:15:00,0.168
12/07/2024 09:30:00,0.168
12/07/2024 09:45:00,0.168
12/07/2024 10:00:00,0.168
12/07/2024 10:15:00,0.168
12/07/2024 10:30:00,0.168
12/07/2024 10:45:00,0.168
12/07/2024 11:00:00,0.168
12/07/2024 11:15:00,0.167
12/07/2024 11:30:00,0.167
12/07/2024 11:45:00,0.167
12/07/2024 12:00:00,0.167
12/07/2024 12:15:00,0.166
12/07/2024 12:30:00,0.166
12/07/2024 12:45:00,0.165
12/07/2024 13:00:00,0.165
12/07/2024 13:15:00,0.165
12/07/2024 13:30:00,0.165
12/07/2024 13:45:00,0.165
12/07/2024 14:00:00,0.165
12/07/2024 14:15:00,0.165
12/07/2024 14:30:00,0.165
12/07/2024 14:45:00,0.165
12/07/2024 15:00:00,0.165
12/07/2024 15:15:00,0.165
12/07/2024 15:30:00,0.165
12/07/2024 15:45:00,0.165
12/07/2024 16:00:00,0.165
12/07/2024 16:15:00,0.165
12/07/2024 16:30:00,0.165
12/07/2024 16:45:00,0.165
12/07/2024 17:00:00,0.165
12/07/2024 17:15:00,0.165
12/07/2024 17:30:00,0.165
12/07/2024 17:45:00,0.164
12/07/2024 18:00:00,0.164
12/07/2024 18:15:00,0.164
12/07/2024 18:30:00,0.164
12/07/2024 18:45:00,0.164
12/07/2024 19:00:00,0.164
12/07/2024 19:15:00,0.164
12/07/2024 19:30:00,0.164
12/07/2024 19:45:00,0.163
12/07/2024 20:00:00,0.163
12/07/2024 20:15:00,0.163
12/07/2024 20:30:00,0.162
12/07/2024 20:45:00,0.162
12/07/2024 21:00:00,0.162
12/07/2024 21:15:00,0.162
12/07/2024 21:30:00,0.162
12/07/2024 21:45:00,0.162
12/07/2024 22:00:00,0.162
12/07/2024 22:15:00,0.162
12/07/2024 22:30:00,0.162
12/07/2024 22:45:00,0.162
12/07/2024 23:00:00,0.162
12/07/2024 23:15:00,0.162
12/07/2024 23:30:00,0.162
12/07/2024 23:45:00,0.162
13/07/2024 00:00:00,0.162
13/07/2024 00:15:00,0.162
13/07/2024 00:30:00,0.162
13/07/2024 00:45:00,0.162
13/07/2024 01:00:00,0.162
13/07/2024 01:15:00,0.162
13/07/2024 01:30:00,0.161
13/07/2024 01:45:00,0.161
13/07/2024 02:00:00,0.161
13/07/2024 02:15:00,0.161
13/07/2024 02:30:00,0.161
13/07/2024 02:45:00,0.161
13/07/2024 03:00:00,0.161
13/07/2024 03:15:00,0.161
13/07/2024 03:30:00,0.161
13/07/2024 03:45:00,0.161
13/07/2024 04:00:00,0.161
13/07/2024 04:15:00,0.161
13/07/2024 04:30:00,0.161
13/07/2024 04:45:00,0.161
13/07/2024 05:00:00,0.161
13/07/2024 05:15:00,0.161
13/07/2024 05:30:00,0.161
13/07/2024 05:45:00,0.161
13/07/2024 06:00:00,0.161
13/07/2024 06:15:00,0.161
13/07/2024 06:30:00,0.161
13/07/2024 06:45:00,0.161
13/07/2024 07:00:00,0.16
13/07/2024 07:15:00,0.16
13/07/2024 07:30:00,0.16
13/07/2024 07:45:00,0.16
13/07/2024 08:00:00,0.16
13/07/2024 08:15:00,0.16
13/07/2024 08:30:00,0.16
13/07/2024 08:45:00,0.16
13/07/2024 09:00:00,0.16
13/07/2024 09:15:00,0.16
13/07/2024 09:30:00,0.16
13/07/2024 09:45:00,0.16
13/07/2024 10:00:00,0.16
13/07/2024 10:15:00,0.159
13/07/2024 10:30:00,0.159
13/07/2024 10:45:00,0.159
13/07/2024 11:00:00,0.159
13/07/2024 11:15:00,0.159
13/07/2024 11:30:00,0.159
13/07/2024 11:45:00,0.159
13/07/2024 12:00:00,0.159
13/07/2024 12:15:00,0.158
13/07/2024 12:30:00,0.158
13/07/2024 12:45:00,0.159
13/07/2024 13:00:00,0.158
13/07/2024 13:15:00,0.157
13/07/2024 13:30:00,0.158
13/07/2024 13:45:00,0.157
13/07/2024 14:00:00,0.157
13/07/2024 14:15:00,0.157
13/07/2024 14:30:00,0.157
13/07/2024 14:45:00,0.156
13/07/2024 15:00:00,0.156
13/07/2024 15:15:00,0.156
13/07/2024 15:30:00,0.156
13/07/2024 15:45:00,0.156
13/07/2024 16:00:00,0.155
13/07/2024 16:15:00,0.155
13/07/2024 16:30:00,0.154
13/07/2024 16:45:00,0.154
13/07/2024 17:00:00,0.154
13/07/2024 17:15:00,0.153
13/07/2024 17:30:00,0.153
13/07/2024 17:45:00,0.152
13/07/2024 18:00:00,0.151
13/07/2024 18:15:00,0.151
13/07/2024 18:30:00,0.151
13/07/2024 18:45:00,0.151
13/07/2024 19:00:00,0.151
13/07/2024 19:15:00,0.15
13/07/2024 19:30:00,0.15
13/07/2024 19:45:00,0.15
13/07/2024 20:00:00,0.15
13/07/2024 20:15:00,0.148
13/07/2024 20:30:00,0.15
13/07/2024 20:45:00,0.148
13/07/2024 21:00:00,0.149
13/07/2024 21:15:00,0.148
13/07/2024 21:30:00,0.148
13/07/2024 21:45:00,0.148
13/07/2024 22:00:00,0.148
13/07/2024 22:15:00,0.147
13/07/2024 22:30:00,0.147
13/07/2024 22:45:00,0.147
13/07/2024 23:00:00,0.147
13/07/2024 23:15:00,0.147
13/07/2024 23:30:00,0.147
13/07/2024 23:45:00,0.147
14/07/2024 00:00:00,0.147
14/07/2024 00:15:00,0.147
14/07/2024 00:30:00,0.147
14/07/2024 00:45:00,0.147
14/07/2024 01:00:00,0.147
14/07/2024 01:15:00,0.147
14/07/2024 01:30:00,0.147
14/07/2024 01:45:00,0.147
14/07/2024 02:00:00,0.147
14/07/2024 02:15:00,0.147
14/07/2024 02:30:00,0.147
14/07/2024 02:45:00,0.147
14/07/2024 03:00:00,0.147
14/07/2024 03:15:00,0.147
14/07/2024 03:30:00,0.147
14/07/2024 03:45:00,0.147
14/07/2024 04:00:00,0.147
14/07/2024 04:15:00,0.147
14/07/2024 04:30:00,0.147
14/07/2024 04:45:00,0.147
14/07/2024 05:00:00,0.147
14/07/2024 05:15:00,0.147
14/07/2024 05:30:00,0.147
14/07/2024 05:45:00,0.147
14/07/2024 06:00:00,0.147
14/07/2024 06:15:00,0.147
14/07/2024 06:30:00,0.147
14/07/2024 06:45:00,0.148
14/07/2024 07:00:00,0.148
14/07/2024 07:15:00,0.147
14/07/2024 07:30:00,0.148
14/07/2024 07:45:00,0.147
14/07/2024 08:00:00,0.147
14/07/2024 08:15:00,0.147
14/07/2024 08:30:00,0.147
14/07/2024 08:45:00,0.147
14/07/2024 09:00:00,0.147
14/07/2024 09:15:00,0.147
14/07/2024 09:30:00,0.147
14/07/2024 09:45:00,0.147
14/07/2024 10:00:00,0.147
14/07/2024 10:15:00,0.147
14/07/2024 10:30:00,0.146
14/07/2024 10:45:00,0.146
14/07/2024 11:00:00,0.146
14/07/2024 11:15:00,0.146
14/07/2024 11:30:00,0.146
14/07/2024 11:45:00,0.146
14/07/2024 12:00:00,0.146
14/07/2024 12:15:00,0.146
14/07/2024 12:30:00,0.146
14/07/2024 12:45:00,0.146
14/07/2024 13:00:00,0.146
14/07/2024 13:15:00,0.146
14/07/2024 13:30:00,0.146
14/07/2024 13:45:00,0.145
14/07/2024 14:00:00,0.145
14/07/2024 14:15:00,0.145
14/07/2024 14:30:00,0.144
14/07/2024 14:45:00,0.144
14/07/2024 15:00:00,0.143
14/07/2024 15:15:00,0.143
14/07/2024 15:30:00,0.143
14/07/2024 15:45:00,0.143
14/07/2024 16:00:00,0.142
14/07/2024 16:15:00,0.142
14/07/2024 16:30:00,0.142
14/07/2024 16:45:00,0.142
14/07/2024 17:00:00,0.142
14/07/2024 17:15:00,0.142
14/07/2024 17:30:00,0.142
14/07/2024 17:45:00,0.141
14/07/2024 18:00:00,0.141
14/07/2024 18:15:00,0.141
14/07/2024 18:30:00,0.141
14/07/2024 18:45:00,0.14
14/07/2024 19:00:00,0.14
14/07/2024 19:15:00,0.14
14/07/2024 19:30:00,0.14
14/07/2024 19:45:00,0.14
14/07/2024 20:00:00,0.14
14/07/2024 20:15:00,0.14
14/07/2024 20:30:00,0.14
14/07/2024 20:45:00,0.14
14/07/2024 21:00:00,0.14
14/07/2024 21:15:00,0.14
14/07/2024 21:30:00,0.14
14/07/2024 21:45:00,0.14
14/07/2024 22:00:00,0.14
14/07/2024 22:15:00,0.14
14/07/2024 22:30:00,0.14
14/07/2024 22:45:00,0.14
14/07/2024 23:00:00,0.139
14/07/2024 23:15:00,0.139
14/07/2024 23:30:00,0.139
14/07/2024 23:45:00,0.139
15/07/2024 00:00:00,0.138
15/07/2024 00:15:00,0.138
15/07/2024 00:30:00,0.138
15/07/2024 00:45:00,0.138
15/07/2024 01:00:00,0.138
15/07/2024 01:15:00,0.138
15/07/2024 01:30:00,0.138
15/07/2024 01:45:00,0.138
15/07/2024 02:00:00,0.138
15/07/2024 02:15:00,0.138
15/07/2024 02:30:00,0.138
15/07/2024 02:45:00,0.138
15/07/2024 03:00:00,0.138
15/07/2024 03:15:00,0.138
15/07/2024 03:30:00,0.138
15/07/2024 03:45:00,0.138
15/07/2024 04:00:00,0.138
15/07/2024 04:15:00,0.138
15/07/2024 04:30:00,0.138
15/07/2024 04:45:00,0.138
15/07/2024 05:00:00,0.138
15/07/2024 05:15:00,0.138
15/07/2024 05:30:00,0.138
15/07/2024 05:45:00,0.138
15/07/2024 06:00:00,0.138
15/07/2024 06:15:00,0.138
15/07/2024 06:30:00,0.138
15/07/2024 06:45:00,0.138
15/07/2024 07:00:00,0.138
15/07/2024 07:15:00,0.138
15/07/2024 07:30:00,0.138
15/07/2024 07:45:00,0.138
15/07/2024 08:00:00,0.138
15/07/2024 08:15:00,0.138
15/07/2024 08:30:00,0.138
15/07/2024 08:45:00,0.138
15/07/2024 09:00:00,0.138
15/07/2024 09:15:00,0.138
15/07/2024 09:30:00,0.138
15/07/2024 09:45:00,0.138
15/07/2024 10:00:00,0.138
15/07/2024 10:15:00,0.138
15/07/2024 10:30:00,0.138
15/07/2024 10:45:00,0.138
15/07/2024 11:00:00,0.138
15/07/2024 11:15:00,0.138
15/07/2024 11:30:00,0.138
15/07/2024 11:45:00,0.137
15/07/2024 12:00:00,0.137
15/07/2024 12:15:00,0.137
15/07/2024 12:30:00,0.137
15/07/2024 12:45:00,0.137
15/07/2024 13:00:00,0.137
15/07/2024 13:15:00,0.137
15/07/2024 13:30:00,0.137
15/07/2024 13:45:00,0.137
15/07/2024 14:00:00,0.137
15/07/2024 14:15:00,0.137
15/07/2024 14:30:00,0.136
15/07/2024 14:45:00,0.136
15/07/2024 15:00:00,0.136
15/07/2024 15:15:00,0.136
15/07/2024 15:30:00,0.136
15/07/2024 15:45:00,0.136
15/07/2024 16:00:00,0.136
15/07/2024 16:15:00,0.135
15/07/2024 16:30:00,0.135
15/07/2024 16:45:00,0.135
15/07/2024 17:00:00,0.134
15/07/2024 17:15:00,0.134
15/07/2024 17:30:00,0.134
15/07/2024 17:45:00,0.134
15/07/2024 18:00:00,0.133
15/07/2024 18:15:00,0.133
15/07/2024 18:30:00,0.133
15/07/2024 18:45:00,0.133
15/07/2024 19:00:00,0.133
15/07/2024 19:15:00,0.133
15/07/2024 19:30:00,0.133
15/07/2024 19:45:00,0.133
15/07/2024 20:00:00,0.133
15/07/2024 20:15:00,0.133
15/07/2024 20:30:00,0.133
15/07/2024 20:45:00,0.133
15/07/2024 21:00:00,0.133
15/07/2024 21:15:00,0.133
15/07/2024 21:30:00,0.133
15/07/2024 21:45:00,0.133
15/07/2024 22:00:00,0.133
15/07/2024 22:15:00,0.133
15/07/2024 22:30:00,0.133
15/07/2024 22:45:00,0.133
15/07/2024 23:00:00,0.133
15/07/2024 23:15:00,0.133
15/07/2024 23:30:00,0.133
15/07/2024 23:45:00,0.133
16/07/2024 00:00:00,0.133
16/07/2024 00:15:00,0.133
16/07/2024 00:30:00,0.133
16/07/2024 00:45:00,0.133
16/07/2024 01:00:00,0.133
16/07/2024 01:15:00,0.133
16/07/2024 01:30:00,0.133
16/07/2024 01:45:00,0.133
16/07/2024 02:00:00,0.133
16/07/2024 02:15:00,0.133
16/07/2024 02:30:00,0.133
16/07/2024 02:45:00,0.133
16/07/2024 03:00:00,0.133
16/07/2024 03:15:00,0.133
16/07/2024 03:30:00,0.133
16/07/2024 03:45:00,0.133
16/07/2024 04:00:00,0.133
16/07/2024 04:15:00,0.133
16/07/2024 04:30:00,0.133
16/07/2024 04:45:00,0.133
16/07/2024 05:00:00,0.133
16/07/2024 05:15:00,0.133
16/07/2024 05:30:00,0.133
16/07/2024 05:45:00,0.133
16/07/2024 06:00:00,0.133
16/07/2024 06:15:00,0.133
16/07/2024 06:30:00,0.133
16/07/2024 06:45:00,0.133
16/07/2024 07:15:00,0.133
16/07/2024 07:30:00,0.133
